Total_Precipitation_Accumulation
0.12 0.18 0.23 0.29 0.29 0.32 0.34 0.24 0.66 0.66 0.96 1.39 1.50 1.50 1.68 1.97 2.46 2.46 3.03 3.32 3.32 3.29 3.06 2.80 2.80 2.40 2.09 1.69 1.05 1.05 1.08 1.24 1.22 1.22 0.93 0.79 0.40 0.40 0.23 0.19 0.19 0.14 0.18 0.13 0.13 0.04 0.03 0.04 0.04 0.02 0.03 0.01 0.05 0.05 0.11 0.12 0.12 0.14 0.15 0.24 0.24 0.32 0.37 0.34 0.34 0.27 0.25 0.21 0.06 0.06 0.02 0.01 0.01 0.01 0.01 0.00 0.00 0.00 0.00 0.00 0.00 0.00 0.00 0.00 0.00 0.00
0.13 0.10 0.18 0.30 0.30 0.38 0.24 0.20 0.24 0.24 0.39 1.08 1.09 1.09 1.50 1.81 2.18 2.18 2.24 2.72 2.72 3.00 2.87 2.65 2.65 2.42 2.14 1.85 1.51 1.51 1.19 1.18 1.38 1.38 1.24 1.12 0.58 0.58 0.26 0.23 0.23 0.18 0.16 0.18 0.18 0.04 0.02 0.04 0.04 0.04 0.04 0.02 0.03 0.03 0.05 0.11 0.11 0.12 0.10 0.22 0.22 0.31 0.38 0.33 0.33 0.28 0.25 0.22 0.15 0.15 0.08 0.05 0.02 0.02 0.02 0.00 0.00 0.00 0.00 0.00 0.00 0.00 0.00 0.00 0.00 0.00
0.20 0.16 0.16 0.24 0.24 0.40 0.32 0.30 0.20 0.20 0.20 0.36 0.35 0.35 1.23 1.45 1.80 1.80 1.82 2.25 2.25 2.60 2.43 2.55 2.55 2.34 2.08 1.89 1.71 1.71 1.39 1.31 1.27 1.27 1.45 1.54 0.91 0.91 0.36 0.26 0.26 0.24 0.19 0.18 0.18 0.19 0.11 0.05 0.05 0.04 0.04 0.04 0.02 0.02 0.02 0.08 0.08 0.13 0.12 0.11 0.11 0.19 0.32 0.39 0.39 0.30 0.26 0.21 0.17 0.17 0.10 0.06 0.03 0.03 0.03 0.02 0.02 0.02 0.02 0.01 0.01 0.01 0.01 0.01 0.01 0.00
0.30 0.23 0.18 0.16 0.16 0.18 0.36 0.35 0.33 0.33 0.22 0.20 0.26 0.26 0.44 0.86 1.40 1.40 1.30 1.69 1.69 2.11 1.86 2.15 2.15 2.29 2.01 1.80 1.82 1.82 1.60 1.58 1.31 1.31 1.38 1.42 1.45 1.45 1.16 0.91 0.91 0.23 0.20 0.15 0.15 0.17 0.14 0.07 0.07 0.05 0.05 0.06 0.05 0.05 0.01 0.06 0.06 0.12 0.11 0.13 0.13 0.18 0.31 0.42 0.42 0.44 0.33 0.25 0.20 0.20 0.17 0.08 0.04 0.04 0.04 0.04 0.03 0.03 0.05 0.02 0.02 0.03 0.02 0.02 0.02 0.01
0.35 0.27 0.23 0.20 0.20 0.17 0.13 0.13 0.42 0.42 0.38 0.28 0.37 0.37 0.38 0.56 0.86 0.86 0.80 1.31 1.31 1.59 1.46 1.71 1.71 1.91 1.69 1.73 1.60 1.60 1.70 1.65 1.51 1.51 1.35 1.35 1.41 1.41 1.31 1.10 1.10 0.66 0.35 0.26 0.26 0.13 0.14 0.07 0.07 0.04 0.05 0.06 0.06 0.06 0.06 0.03 0.03 0.04 0.07 0.10 0.10 0.18 0.30 0.43 0.43 0.49 0.38 0.27 0.20 0.20 0.16 0.13 0.09 0.09 0.07 0.07 0.06 0.06 0.06 0.06 0.06 0.04 0.04 0.02 0.02 0.02
0.29 0.29 0.28 0.25 0.25 0.19 0.13 0.15 0.18 0.18 0.37 0.46 0.48 0.48 0.42 0.43 0.46 0.46 0.74 1.01 1.01 1.19 1.01 1.39 1.39 1.51 1.25 1.40 1.39 1.39 1.46 1.47 1.56 1.56 1.58 1.38 1.34 1.34 1.34 1.18 1.18 0.82 0.49 0.39 0.39 0.21 0.13 0.09 0.09 0.06 0.04 0.06 0.07 0.07 0.06 0.04 0.04 0.03 0.05 0.09 0.09 0.12 0.19 0.28 0.28 0.39 0.47 0.28 0.21 0.21 0.16 0.12 0.09 0.09 0.08 0.07 0.07 0.07 0.06 0.06 0.06 0.06 0.06 0.04 0.04 0.05
0.25 0.27 0.25 0.26 0.26 0.20 0.17 0.16 0.18 0.18 0.32 0.50 0.52 0.52 0.48 0.40 0.48 0.48 0.56 0.81 0.81 1.01 0.81 0.82 0.82 0.94 0.85 1.06 1.20 1.20 1.34 1.37 1.48 1.48 1.60 1.63 1.54 1.54 1.36 1.33 1.33 0.96 0.61 0.49 0.49 0.37 0.19 0.17 0.17 0.06 0.04 0.03 0.04 0.04 0.04 0.05 0.05 0.04 0.04 0.06 0.06 0.12 0.18 0.25 0.25 0.32 0.43 0.44 0.35 0.35 0.23 0.18 0.12 0.12 0.09 0.07 0.06 0.06 0.06 0.07 0.07 0.06 0.06 0.06 0.06 0.06
0.19 0.19 0.21 0.27 0.27 0.34 0.33 0.31 0.20 0.20 0.19 0.27 0.30 0.30 0.41 0.53 0.49 0.49 0.52 0.48 0.48 0.45 0.66 0.78 0.78 0.71 0.54 0.55 0.68 0.68 0.83 0.78 0.99 0.99 1.18 1.32 1.43 1.43 1.49 1.46 1.46 1.47 1.24 1.17 1.17 0.80 0.64 0.63 0.63 0.52 0.34 0.06 0.02 0.02 0.02 0.02 0.02 0.04 0.05 0.04 0.04 0.06 0.08 0.11 0.11 0.13 0.17 0.23 0.22 0.22 0.30 0.22 0.16 0.16 0.11 0.09 0.06 0.06 0.05 0.05 0.05 0.05 0.04 0.05 0.05 0.06
0.15 0.17 0.16 0.20 0.20 0.29 0.33 0.30 0.30 0.30 0.28 0.23 0.22 0.22 0.31 0.41 0.41 0.41 0.54 0.56 0.56 0.48 0.40 0.49 0.49 0.66 0.50 0.47 0.53 0.53 0.67 0.62 0.74 0.74 0.93 0.87 1.06 1.06 1.23 1.22 1.22 1.39 1.41 1.24 1.24 1.08 0.86 0.86 0.86 0.64 0.51 0.45 0.17 0.17 0.16 0.03 0.03 0.03 0.05 0.05 0.05 0.06 0.08 0.12 0.12 0.13 0.14 0.18 0.17 0.17 0.22 0.21 0.22 0.22 0.18 0.15 0.11 0.11 0.09 0.07 0.07 0.05 0.04 0.05 0.05 0.06
0.15 0.12 0.11 0.15 0.15 0.17 0.26 0.22 0.29 0.29 0.34 0.32 0.30 0.30 0.21 0.31 0.36 0.36 0.45 0.44 0.44 0.41 0.36 0.35 0.35 0.43 0.39 0.47 0.51 0.51 0.53 0.52 0.58 0.58 0.70 0.68 0.81 0.81 0.96 0.96 0.96 0.98 1.07 0.95 0.95 1.11 1.06 1.00 1.00 0.83 0.59 0.52 0.42 0.42 0.36 0.16 0.16 0.03 0.04 0.05 0.05 0.05 0.06 0.07 0.07 0.09 0.12 0.15 0.15 0.15 0.18 0.21 0.21 0.21 0.19 0.16 0.13 0.13 0.11 0.08 0.08 0.06 0.06 0.04 0.04 0.04
0.16 0.13 0.13 0.12 0.12 0.14 0.17 0.16 0.23 0.23 0.35 0.41 0.50 0.50 0.34 0.23 0.27 0.27 0.32 0.33 0.33 0.36 0.34 0.29 0.29 0.32 0.33 0.41 0.48 0.48 0.53 0.60 0.55 0.55 0.62 0.73 0.83 0.83 0.90 1.00 1.00 0.95 0.88 0.86 0.86 0.90 1.03 1.01 1.01 1.03 0.92 0.62 0.50 0.50 0.48 0.28 0.28 0.12 0.08 0.05 0.05 0.07 0.08 0.08 0.08 0.09 0.11 0.12 0.12 0.12 0.13 0.15 0.16 0.16 0.19 0.19 0.14 0.14 0.12 0.10 0.10 0.08 0.08 0.06 0.06 0.06
0.13 0.11 0.13 0.13 0.13 0.15 0.17 0.19 0.21 0.21 0.36 0.56 0.59 0.59 0.46 0.30 0.32 0.32 0.30 0.25 0.25 0.26 0.23 0.28 0.28 0.25 0.23 0.32 0.42 0.42 0.53 0.55 0.54 0.54 0.56 0.55 0.65 0.65 0.86 1.03 1.03 1.05 0.99 1.04 1.04 0.87 0.91 0.91 0.91 0.96 0.96 0.86 0.69 0.69 0.58 0.55 0.55 0.35 0.21 0.06 0.06 0.07 0.10 0.09 0.09 0.09 0.11 0.12 0.12 0.12 0.12 0.14 0.14 0.14 0.17 0.17 0.17 0.17 0.14 0.12 0.12 0.10 0.10 0.09 0.09 0.09
0.10 0.09 0.10 0.12 0.12 0.13 0.16 0.17 0.20 0.20 0.25 0.26 0.38 0.38 0.37 0.35 0.35 0.35 0.27 0.20 0.20 0.18 0.19 0.29 0.29 0.29 0.24 0.26 0.36 0.36 0.49 0.46 0.45 0.45 0.50 0.49 0.54 0.54 0.74 0.76 0.76 0.90 1.00 0.98 0.98 1.04 0.85 1.01 1.01 0.94 0.96 0.85 0.69 0.69 0.69 0.67 0.67 0.43 0.31 0.15 0.15 0.08 0.10 0.10 0.10 0.10 0.10 0.11 0.13 0.13 0.12 0.12 0.13 0.13 0.15 0.16 0.17 0.17 0.15 0.14 0.14 0.11 0.11 0.09 0.09 0.10
0.10 0.10 0.10 0.10 0.10 0.11 0.10 0.13 0.15 0.15 0.17 0.13 0.18 0.18 0.20 0.23 0.34 0.34 0.33 0.22 0.22 0.16 0.30 0.32 0.32 0.28 0.27 0.26 0.23 0.23 0.28 0.33 0.44 0.44 0.48 0.38 0.42 0.42 0.56 0.56 0.56 0.65 0.81 0.81 0.81 0.78 0.72 0.79 0.79 0.95 0.89 0.78 0.75 0.75 0.75 0.77 0.77 0.60 0.50 0.27 0.27 0.13 0.14 0.10 0.10 0.10 0.12 0.11 0.12 0.12 0.13 0.13 0.12 0.12 0.12 0.12 0.14 0.14 0.16 0.16 0.16 0.16 0.16 0.13 0.13 0.11
0.10 0.10 0.10 0.10 0.10 0.08 0.06 0.09 0.11 0.11 0.11 0.12 0.14 0.14 0.18 0.22 0.31 0.31 0.40 0.41 0.41 0.20 0.39 0.35 0.35 0.27 0.24 0.23 0.23 0.23 0.26 0.32 0.38 0.38 0.41 0.29 0.28 0.28 0.34 0.51 0.51 0.52 0.68 0.65 0.65 0.59 0.55 0.66 0.66 0.72 0.75 0.63 0.59 0.59 0.69 0.68 0.68 0.80 0.74 0.68 0.68 0.48 0.49 0.15 0.15 0.11 0.14 0.14 0.18 0.18 0.14 0.13 0.13 0.13 0.11 0.11 0.12 0.12 0.14 0.14 0.14 0.17 0.18 0.16 0.16 0.13
0.09 0.10 0.09 0.08 0.08 0.07 0.05 0.05 0.06 0.06 0.11 0.16 0.19 0.19 0.25 0.28 0.29 0.29 0.40 0.41 0.41 0.33 0.43 0.44 0.44 0.43 0.20 0.19 0.28 0.28 0.29 0.35 0.32 0.32 0.32 0.22 0.20 0.20 0.30 0.59 0.59 0.56 0.46 0.39 0.39 0.48 0.54 0.56 0.56 0.60 0.60 0.45 0.44 0.44 0.51 0.52 0.52 0.66 0.69 0.70 0.70 0.67 0.65 0.41 0.41 0.24 0.22 0.17 0.20 0.20 0.20 0.22 0.24 0.24 0.20 0.21 0.12 0.12 0.12 0.13 0.13 0.15 0.16 0.18 0.18 0.15
0.08 0.08 0.08 0.08 0.08 0.07 0.05 0.06 0.06 0.06 0.07 0.12 0.16 0.16 0.22 0.24 0.26 0.26 0.31 0.35 0.35 0.42 0.40 0.39 0.39 0.48 0.27 0.21 0.21 0.21 0.26 0.40 0.28 0.28 0.27 0.18 0.15 0.15 0.27 0.40 0.40 0.44 0.36 0.24 0.24 0.31 0.43 0.41 0.41 0.50 0.53 0.44 0.45 0.45 0.42 0.42 0.42 0.55 0.69 0.69 0.69 0.68 0.66 0.52 0.52 0.33 0.27 0.21 0.21 0.21 0.21 0.26 0.26 0.26 0.26 0.21 0.20 0.20 0.11 0.11 0.11 0.12 0.11 0.14 0.14 0.17
0.05 0.05 0.09 0.08 0.08 0.06 0.06 0.06 0.06 0.06 0.08 0.12 0.16 0.16 0.20 0.20 0.24 0.24 0.26 0.34 0.34 0.42 0.37 0.37 0.37 0.33 0.20 0.19 0.16 0.16 0.23 0.42 0.40 0.40 0.36 0.30 0.17 0.17 0.23 0.30 0.30 0.28 0.25 0.16 0.16 0.18 0.30 0.28 0.28 0.39 0.45 0.42 0.50 0.50 0.48 0.49 0.49 0.44 0.45 0.45 0.45 0.56 0.54 0.59 0.59 0.56 0.46 0.23 0.21 0.21 0.21 0.24 0.23 0.23 0.27 0.24 0.24 0.24 0.17 0.14 0.14 0.11 0.11 0.12 0.12 0.15
0.04 0.03 0.05 0.08 0.08 0.07 0.06 0.05 0.07 0.07 0.11 0.11 0.17 0.17 0.25 0.24 0.29 0.29 0.28 0.29 0.29 0.32 0.27 0.33 0.33 0.23 0.16 0.11 0.12 0.12 0.23 0.46 0.48 0.48 0.43 0.26 0.18 0.18 0.18 0.32 0.32 0.34 0.24 0.16 0.16 0.12 0.17 0.17 0.17 0.27 0.36 0.44 0.48 0.48 0.55 0.59 0.59 0.51 0.46 0.47 0.47 0.46 0.46 0.48 0.48 0.51 0.44 0.35 0.23 0.23 0.19 0.19 0.17 0.17 0.18 0.25 0.26 0.26 0.28 0.26 0.26 0.17 0.11 0.11 0.11 0.12
0.03 0.03 0.03 0.05 0.05 0.06 0.06 0.05 0.05 0.05 0.09 0.11 0.18 0.18 0.23 0.25 0.26 0.26 0.27 0.30 0.30 0.28 0.23 0.24 0.24 0.23 0.14 0.15 0.12 0.12 0.29 0.70 0.69 0.69 0.41 0.23 0.18 0.18 0.20 0.30 0.30 0.34 0.25 0.12 0.12 0.10 0.12 0.12 0.12 0.15 0.21 0.27 0.41 0.41 0.51 0.54 0.54 0.60 0.51 0.54 0.54 0.50 0.49 0.45 0.45 0.43 0.38 0.38 0.26 0.26 0.22 0.17 0.17 0.17 0.16 0.20 0.23 0.23 0.29 0.29 0.29 0.23 0.14 0.14 0.14 0.12
0.03 0.02 0.02 0.04 0.04 0.06 0.04 0.04 0.06 0.06 0.07 0.09 0.14 0.14 0.17 0.21 0.20 0.20 0.22 0.29 0.29 0.27 0.26 0.20 0.20 0.15 0.10 0.13 0.14 0.14 0.15 0.48 0.88 0.88 0.67 0.40 0.16 0.16 0.19 0.26 0.26 0.29 0.21 0.10 0.10 0.10 0.12 0.12 0.12 0.12 0.16 0.21 0.36 0.36 0.49 0.56 0.56 0.59 0.64 0.66 0.66 0.63 0.66 0.57 0.57 0.48 0.46 0.40 0.33 0.33 0.31 0.26 0.25 0.25 0.18 0.18 0.20 0.20 0.20 0.27 0.27 0.29 0.20 0.18 0.18 0.14
0.04 0.02 0.01 0.02 0.02 0.04 0.03 0.03 0.06 0.06 0.08 0.13 0.15 0.15 0.15 0.18 0.18 0.18 0.16 0.28 0.28 0.29 0.27 0.18 0.18 0.11 0.16 0.15 0.12 0.12 0.17 0.41 0.64 0.64 0.57 0.46 0.21 0.21 0.15 0.18 0.18 0.24 0.25 0.14 0.14 0.10 0.12 0.13 0.13 0.11 0.12 0.15 0.29 0.29 0.46 0.56 0.56 0.61 0.65 0.67 0.67 0.68 0.66 0.68 0.68 0.57 0.57 0.46 0.36 0.36 0.34 0.30 0.32 0.32 0.26 0.21 0.23 0.23 0.21 0.23 0.23 0.26 0.29 0.29 0.29 0.22
0.04 0.03 0.02 0.01 0.01 0.03 0.03 0.03 0.04 0.04 0.07 0.10 0.11 0.11 0.12 0.17 0.13 0.13 0.15 0.21 0.21 0.23 0.26 0.22 0.22 0.20 0.19 0.14 0.11 0.11 0.16 0.31 0.55 0.55 0.67 0.41 0.17 0.17 0.14 0.20 0.20 0.28 0.21 0.11 0.11 0.12 0.12 0.15 0.15 0.12 0.10 0.10 0.12 0.12 0.22 0.27 0.27 0.47 0.63 0.67 0.67 0.69 0.70 0.72 0.72 0.69 0.66 0.55 0.47 0.47 0.48 0.39 0.39 0.39 0.33 0.27 0.27 0.27 0.24 0.23 0.23 0.27 0.29 0.32 0.32 0.32
0.02 0.02 0.02 0.02 0.02 0.01 0.02 0.03 0.03 0.03 0.06 0.07 0.09 0.09 0.11 0.13 0.14 0.14 0.16 0.19 0.19 0.25 0.30 0.27 0.27 0.26 0.30 0.21 0.18 0.18 0.19 0.20 0.35 0.35 0.60 0.29 0.16 0.16 0.14 0.23 0.23 0.27 0.17 0.13 0.13 0.14 0.15 0.17 0.17 0.12 0.10 0.11 0.12 0.12 0.15 0.18 0.18 0.34 0.55 0.60 0.60 0.67 0.69 0.70 0.70 0.72 0.74 0.72 0.64 0.64 0.62 0.55 0.48 0.48 0.55 0.44 0.45 0.45 0.35 0.30 0.30 0.32 0.29 0.33 0.33 0.33
0.02 0.02 0.02 0.02 0.02 0.02 0.02 0.03 0.03 0.03 0.04 0.05 0.07 0.07 0.09 0.11 0.14 0.14 0.16 0.19 0.19 0.26 0.29 0.35 0.35 0.37 0.28 0.29 0.29 0.29 0.23 0.27 0.44 0.44 0.59 0.35 0.21 0.21 0.16 0.15 0.15 0.23 0.23 0.18 0.18 0.20 0.21 0.20 0.20 0.15 0.12 0.13 0.13 0.13 0.13 0.15 0.15 0.24 0.42 0.47 0.47 0.62 0.68 0.69 0.69 0.71 0.73 0.74 0.69 0.69 0.65 0.61 0.58 0.58 0.62 0.56 0.55 0.55 0.45 0.42 0.42 0.44 0.36 0.43 0.43 0.37
0.01 0.02 0.02 0.02 0.02 0.02 0.02 0.03 0.04 0.04 0.04 0.05 0.07 0.07 0.08 0.09 0.12 0.12 0.16 0.20 0.20 0.20 0.32 0.35 0.35 0.32 0.24 0.30 0.28 0.28 0.28 0.31 0.39 0.39 0.44 0.27 0.19 0.19 0.15 0.14 0.14 0.23 0.21 0.26 0.26 0.29 0.33 0.36 0.36 0.26 0.20 0.18 0.15 0.15 0.14 0.14 0.14 0.16 0.20 0.28 0.28 0.38 0.52 0.57 0.57 0.68 0.73 0.78 0.77 0.77 0.76 0.69 0.63 0.63 0.65 0.65 0.69 0.69 0.63 0.57 0.57 0.53 0.51 0.62 0.62 0.56
0.01 0.01 0.01 0.01 0.01 0.01 0.02 0.03 0.04 0.04 0.04 0.04 0.06 0.06 0.07 0.09 0.13 0.13 0.15 0.17 0.17 0.15 0.24 0.27 0.27 0.24 0.16 0.18 0.20 0.20 0.17 0.32 0.32 0.32 0.33 0.29 0.19 0.19 0.12 0.14 0.14 0.23 0.26 0.33 0.33 0.35 0.41 0.40 0.40 0.31 0.24 0.23 0.21 0.21 0.15 0.17 0.17 0.17 0.22 0.28 0.28 0.35 0.46 0.55 0.55 0.64 0.71 0.79 0.81 0.81 0.83 0.78 0.67 0.67 0.72 0.70 0.76 0.76 0.70 0.61 0.61 0.62 0.58 0.77 0.77 0.73
0.00 0.01 0.01 0.01 0.01 0.01 0.01 0.02 0.03 0.03 0.04 0.04 0.05 0.05 0.08 0.11 0.12 0.12 0.10 0.10 0.10 0.15 0.17 0.19 0.19 0.18 0.13 0.12 0.11 0.11 0.18 0.26 0.29 0.29 0.34 0.48 0.32 0.32 0.17 0.11 0.11 0.17 0.26 0.35 0.35 0.30 0.41 0.40 0.40 0.35 0.28 0.31 0.29 0.29 0.22 0.26 0.26 0.20 0.21 0.27 0.27 0.35 0.46 0.55 0.55 0.63 0.71 0.78 0.83 0.83 0.88 0.88 0.83 0.83 0.89 0.80 0.88 0.88 0.80 0.69 0.69 0.74 0.71 0.99 0.99 0.91
0.00 0.00 0.01 0.01 0.01 0.01 0.01 0.02 0.03 0.03 0.03 0.04 0.04 0.04 0.05 0.09 0.09 0.09 0.06 0.08 0.08 0.12 0.13 0.14 0.14 0.14 0.09 0.07 0.09 0.09 0.14 0.15 0.23 0.23 0.40 0.50 0.30 0.30 0.15 0.18 0.18 0.22 0.29 0.38 0.38 0.29 0.31 0.37 0.37 0.41 0.40 0.38 0.39 0.39 0.37 0.45 0.45 0.40 0.30 0.34 0.34 0.30 0.35 0.40 0.40 0.52 0.64 0.72 0.82 0.82 0.93 0.96 0.94 0.94 1.03 1.02 1.10 1.10 1.06 0.94 0.94 1.07 0.98 0.96 0.96 1.02
0.01 0.01 0.01 0.01 0.01 0.01 0.01 0.02 0.02 0.02 0.03 0.03 0.04 0.04 0.05 0.08 0.08 0.08 0.07 0.07 0.07 0.09 0.10 0.12 0.12 0.14 0.11 0.08 0.11 0.11 0.09 0.10 0.21 0.21 0.44 0.42 0.28 0.28 0.16 0.21 0.21 0.23 0.36 0.54 0.54 0.52 0.39 0.30 0.30 0.38 0.39 0.38 0.43 0.43 0.44 0.53 0.53 0.54 0.48 0.52 0.52 0.40 0.34 0.38 0.38 0.47 0.61 0.70 0.83 0.83 0.92 1.03 1.04 1.04 1.10 1.09 1.10 1.10 1.14 1.14 1.14 1.38 1.29 1.13 1.13 1.01
0.01 0.01 0.02 0.01 0.01 0.02 0.02 0.02 0.02 0.02 0.03 0.03 0.04 0.04 0.06 0.07 0.07 0.07 0.08 0.08 0.08 0.09 0.11 0.14 0.14 0.15 0.10 0.13 0.16 0.16 0.09 0.06 0.10 0.10 0.27 0.29 0.27 0.27 0.25 0.26 0.26 0.21 0.23 0.40 0.40 0.68 0.37 0.24 0.24 0.25 0.32 0.37 0.43 0.43 0.48 0.53 0.53 0.56 0.59 0.67 0.67 0.55 0.43 0.48 0.48 0.44 0.56 0.62 0.76 0.76 0.84 1.00 1.07 1.07 1.08 1.11 1.11 1.11 1.12 1.18 1.18 1.42 1.50 1.42 1.42 1.29
0.02 0.02 0.03 0.03 0.03 0.03 0.03 0.03 0.03 0.03 0.03 0.03 0.03 0.03 0.02 0.03 0.04 0.04 0.05 0.07 0.07 0.11 0.13 0.12 0.12 0.09 0.08 0.09 0.09 0.09 0.06 0.07 0.10 0.10 0.17 0.27 0.26 0.26 0.21 0.15 0.15 0.20 0.25 0.26 0.26 0.23 0.26 0.14 0.14 0.17 0.25 0.40 0.51 0.51 0.50 0.50 0.50 0.52 0.54 0.58 0.58 0.59 0.61 0.74 0.74 0.80 0.73 0.80 0.66 0.66 0.63 0.67 0.77 0.77 0.79 0.89 0.96 0.96 0.97 1.11 1.11 1.22 1.37 1.38 1.38 1.04
0.02 0.03 0.03 0.03 0.03 0.03 0.03 0.03 0.03 0.03 0.03 0.03 0.03 0.03 0.03 0.03 0.03 0.03 0.04 0.06 0.06 0.07 0.09 0.11 0.11 0.11 0.09 0.09 0.09 0.09 0.09 0.07 0.07 0.07 0.08 0.21 0.29 0.29 0.29 0.21 0.21 0.18 0.25 0.26 0.26 0.23 0.18 0.16 0.16 0.18 0.25 0.40 0.58 0.58 0.52 0.54 0.54 0.53 0.55 0.56 0.56 0.56 0.56 0.63 0.63 0.73 0.80 0.73 0.79 0.79 0.77 0.76 0.71 0.71 0.70 0.68 0.77 0.77 0.77 0.90 0.90 0.98 1.09 1.14 1.14 0.95
0.03 0.03 0.03 0.03 0.03 0.03 0.03 0.03 0.03 0.03 0.03 0.03 0.03 0.03 0.03 0.03 0.03 0.03 0.03 0.05 0.05 0.05 0.07 0.09 0.09 0.10 0.09 0.08 0.08 0.08 0.07 0.08 0.07 0.07 0.11 0.19 0.25 0.25 0.23 0.18 0.18 0.17 0.26 0.26 0.26 0.27 0.26 0.21 0.21 0.22 0.23 0.27 0.43 0.43 0.55 0.56 0.56 0.56 0.56 0.63 0.63 0.60 0.58 0.64 0.64 0.67 0.69 0.66 0.70 0.70 0.75 0.74 0.76 0.76 0.76 0.69 0.68 0.68 0.72 0.84 0.84 0.98 0.98 0.93 0.93 0.84
0.03 0.04 0.04 0.03 0.03 0.03 0.03 0.03 0.03 0.03 0.03 0.04 0.04 0.04 0.04 0.04 0.03 0.03 0.04 0.04 0.04 0.05 0.06 0.07 0.07 0.08 0.07 0.07 0.07 0.07 0.05 0.07 0.11 0.11 0.11 0.16 0.21 0.21 0.22 0.14 0.14 0.15 0.28 0.22 0.22 0.30 0.31 0.21 0.21 0.20 0.22 0.32 0.36 0.36 0.47 0.54 0.54 0.57 0.61 0.75 0.75 0.73 0.65 0.68 0.68 0.64 0.64 0.67 0.61 0.61 0.65 0.63 0.74 0.74 0.68 0.72 0.72 0.72 0.69 0.75 0.75 0.83 0.89 0.88 0.88 0.74
0.03 0.04 0.04 0.04 0.04 0.03 0.03 0.03 0.03 0.03 0.03 0.03 0.04 0.04 0.04 0.04 0.05 0.05 0.04 0.04 0.04 0.04 0.04 0.05 0.05 0.06 0.06 0.06 0.06 0.06 0.04 0.07 0.09 0.09 0.12 0.19 0.24 0.24 0.21 0.12 0.12 0.17 0.24 0.25 0.25 0.29 0.31 0.26 0.26 0.26 0.26 0.26 0.31 0.31 0.34 0.36 0.36 0.45 0.59 0.68 0.68 0.80 0.81 0.82 0.82 0.78 0.73 0.77 0.70 0.70 0.60 0.57 0.57 0.57 0.62 0.62 0.67 0.67 0.79 0.80 0.80 0.82 0.83 0.83 0.83 0.71
0.03 0.03 0.04 0.04 0.04 0.04 0.03 0.03 0.03 0.03 0.03 0.03 0.03 0.03 0.04 0.04 0.05 0.05 0.05 0.05 0.05 0.05 0.05 0.05 0.05 0.05 0.05 0.06 0.05 0.05 0.05 0.06 0.06 0.06 0.07 0.12 0.19 0.19 0.24 0.19 0.19 0.14 0.17 0.18 0.18 0.24 0.30 0.34 0.34 0.41 0.39 0.32 0.30 0.30 0.32 0.35 0.35 0.55 0.66 0.73 0.73 0.73 0.80 0.78 0.78 0.84 0.84 0.77 0.70 0.70 0.64 0.63 0.57 0.57 0.59 0.66 0.74 0.74 0.83 0.83 0.83 0.82 0.78 0.78 0.78 0.78
0.03 0.03 0.03 0.04 0.04 0.03 0.03 0.03 0.03 0.03 0.04 0.04 0.04 0.04 0.04 0.05 0.05 0.05 0.05 0.05 0.05 0.06 0.05 0.05 0.05 0.05 0.05 0.05 0.05 0.05 0.06 0.06 0.06 0.06 0.07 0.12 0.16 0.16 0.20 0.20 0.20 0.18 0.15 0.18 0.18 0.22 0.29 0.37 0.37 0.40 0.40 0.32 0.32 0.32 0.29 0.36 0.36 0.49 0.59 0.67 0.67 0.62 0.70 0.77 0.77 0.82 0.83 0.80 0.77 0.77 0.77 0.79 0.73 0.73 0.67 0.71 0.70 0.70 0.72 0.80 0.80 0.80 0.77 0.78 0.78 0.80
0.03 0.03 0.02 0.02 0.02 0.02 0.03 0.03 0.04 0.04 0.05 0.05 0.04 0.04 0.04 0.05 0.06 0.06 0.06 0.06 0.06 0.06 0.06 0.05 0.05 0.05 0.05 0.05 0.05 0.05 0.06 0.07 0.07 0.07 0.09 0.11 0.13 0.13 0.17 0.18 0.18 0.18 0.17 0.27 0.27 0.29 0.28 0.32 0.32 0.32 0.32 0.38 0.47 0.47 0.47 0.43 0.43 0.48 0.47 0.59 0.59 0.79 0.73 0.70 0.70 0.74 0.75 0.76 0.83 0.83 0.84 0.80 0.83 0.83 0.81 0.74 0.70 0.70 0.62 0.66 0.66 0.74 0.71 0.82 0.82 0.80
0.03 0.02 0.02 0.01 0.01 0.02 0.03 0.03 0.03 0.03 0.04 0.06 0.06 0.06 0.05 0.05 0.05 0.05 0.06 0.06 0.06 0.07 0.06 0.06 0.06 0.06 0.05 0.05 0.05 0.05 0.06 0.07 0.07 0.07 0.08 0.10 0.11 0.11 0.12 0.14 0.14 0.16 0.18 0.22 0.22 0.28 0.35 0.36 0.36 0.34 0.27 0.35 0.40 0.40 0.53 0.57 0.57 0.53 0.53 0.70 0.70 0.69 0.71 0.71 0.71 0.64 0.68 0.74 0.77 0.77 0.79 0.75 0.79 0.79 0.79 0.72 0.66 0.66 0.59 0.58 0.58 0.58 0.56 0.63 0.63 0.76
0.02 0.02 0.02 0.02 0.02 0.01 0.02 0.03 0.03 0.03 0.03 0.06 0.08 0.08 0.07 0.06 0.06 0.06 0.07 0.07 0.07 0.07 0.07 0.06 0.06 0.06 0.06 0.06 0.06 0.06 0.07 0.07 0.08 0.08 0.09 0.11 0.11 0.11 0.11 0.13 0.13 0.17 0.19 0.25 0.25 0.30 0.35 0.38 0.38 0.32 0.32 0.30 0.42 0.42 0.53 0.57 0.57 0.55 0.57 0.65 0.65 0.51 0.57 0.64 0.64 0.64 0.64 0.79 0.73 0.73 0.72 0.74 0.73 0.73 0.75 0.79 0.71 0.71 0.59 0.64 0.64 0.58 0.65 0.57 0.57 0.62
0.02 0.02 0.02 0.02 0.02 0.01 0.02 0.02 0.03 0.03 0.03 0.05 0.09 0.09 0.08 0.08 0.06 0.06 0.07 0.08 0.08 0.07 0.08 0.07 0.07 0.06 0.07 0.06 0.07 0.07 0.07 0.08 0.09 0.09 0.10 0.11 0.11 0.11 0.12 0.15 0.15 0.18 0.20 0.25 0.25 0.31 0.33 0.32 0.32 0.28 0.28 0.27 0.33 0.33 0.45 0.53 0.53 0.60 0.62 0.62 0.62 0.67 0.75 0.64 0.64 0.72 0.76 0.79 0.77 0.77 0.75 0.76 0.77 0.77 0.78 0.80 0.73 0.73 0.64 0.70 0.70 0.66 0.68 0.68 0.68 0.56
0.02 0.02 0.02 0.01 0.01 0.01 0.01 0.02 0.02 0.02 0.03 0.04 0.07 0.07 0.10 0.09 0.06 0.06 0.06 0.07 0.07 0.08 0.08 0.08 0.08 0.06 0.07 0.07 0.08 0.08 0.07 0.07 0.09 0.09 0.10 0.11 0.12 0.12 0.11 0.14 0.14 0.15 0.17 0.21 0.21 0.25 0.28 0.29 0.29 0.29 0.29 0.28 0.37 0.37 0.41 0.54 0.54 0.54 0.55 0.59 0.59 0.80 0.98 0.85 0.85 0.70 0.72 0.72 0.79 0.79 0.78 0.77 0.75 0.75 0.75 0.79 0.74 0.74 0.75 0.74 0.74 0.71 0.70 0.63 0.63 0.58
0.02 0.02 0.02 0.01 0.01 0.01 0.01 0.01 0.02 0.02 0.03 0.03 0.03 0.03 0.06 0.07 0.08 0.08 0.07 0.06 0.06 0.07 0.09 0.08 0.08 0.07 0.08 0.07 0.07 0.07 0.08 0.08 0.09 0.09 0.09 0.11 0.12 0.12 0.12 0.16 0.16 0.17 0.17 0.20 0.20 0.23 0.27 0.27 0.27 0.29 0.37 0.40 0.43 0.43 0.48 0.54 0.54 0.52 0.51 0.56 0.56 0.57 0.57 0.64 0.64 0.68 0.69 0.68 0.86 0.86 0.80 0.77 0.76 0.76 0.79 0.86 0.80 0.80 0.75 0.70 0.70 0.73 0.69 0.66 0.66 0.61
0.02 0.02 0.01 0.02 0.02 0.02 0.02 0.02 0.02 0.02 0.02 0.02 0.03 0.03 0.04 0.05 0.07 0.07 0.08 0.07 0.07 0.09 0.08 0.08 0.08 0.09 0.08 0.08 0.08 0.08 0.08 0.09 0.08 0.08 0.09 0.11 0.11 0.11 0.13 0.18 0.18 0.21 0.19 0.18 0.18 0.21 0.26 0.26 0.26 0.34 0.34 0.40 0.41 0.41 0.49 0.54 0.54 0.51 0.49 0.50 0.50 0.57 0.54 0.59 0.59 0.74 0.71 0.77 0.93 0.93 0.83 0.77 0.80 0.80 0.84 0.87 0.80 0.80 0.73 0.69 0.69 0.70 0.71 0.65 0.65 0.65
0.03 0.02 0.02 0.02 0.02 0.02 0.02 0.02 0.02 0.02 0.02 0.03 0.03 0.03 0.03 0.04 0.06 0.06 0.08 0.09 0.09 0.09 0.09 0.10 0.10 0.09 0.08 0.11 0.10 0.10 0.08 0.08 0.09 0.09 0.09 0.10 0.12 0.12 0.12 0.14 0.14 0.18 0.22 0.23 0.23 0.26 0.22 0.20 0.20 0.29 0.37 0.39 0.47 0.47 0.47 0.50 0.50 0.46 0.50 0.55 0.55 0.54 0.68 0.79 0.79 0.75 0.76 0.90 0.82 0.82 0.82 0.80 0.75 0.75 0.83 0.86 0.82 0.82 0.71 0.65 0.65 0.67 0.67 0.60 0.60 0.57
0.03 0.03 0.02 0.02 0.02 0.02 0.02 0.02 0.02 0.02 0.02 0.03 0.03 0.03 0.03 0.02 0.03 0.03 0.05 0.07 0.07 0.07 0.09 0.10 0.10 0.10 0.09 0.11 0.11 0.11 0.08 0.09 0.10 0.10 0.10 0.10 0.11 0.11 0.13 0.15 0.15 0.17 0.20 0.24 0.24 0.29 0.28 0.24 0.24 0.34 0.33 0.42 0.48 0.48 0.51 0.48 0.48 0.44 0.50 0.50 0.50 0.51 0.56 0.71 0.71 0.66 0.60 0.65 0.71 0.71 0.79 0.77 0.85 0.85 0.84 0.88 0.79 0.79 0.68 0.70 0.70 0.67 0.64 0.66 0.66 0.60
0.04 0.03 0.03 0.03 0.03 0.02 0.02 0.02 0.02 0.02 0.02 0.02 0.03 0.03 0.03 0.02 0.03 0.03 0.05 0.06 0.06 0.06 0.08 0.10 0.10 0.09 0.11 0.12 0.09 0.09 0.08 0.11 0.12 0.12 0.11 0.11 0.11 0.11 0.12 0.14 0.14 0.17 0.18 0.23 0.23 0.25 0.32 0.37 0.37 0.35 0.35 0.29 0.29 0.29 0.39 0.47 0.47 0.39 0.45 0.51 0.51 0.51 0.54 0.63 0.63 0.62 0.58 0.62 0.64 0.64 0.75 0.80 0.72 0.72 0.82 0.77 0.81 0.81 0.79 0.76 0.76 0.70 0.69 0.65 0.65 0.62
0.03 0.04 0.03 0.03 0.03 0.03 0.03 0.02 0.02 0.02 0.02 0.02 0.02 0.02 0.02 0.03 0.03 0.03 0.05 0.05 0.05 0.05 0.08 0.09 0.09 0.11 0.12 0.10 0.08 0.08 0.10 0.12 0.13 0.13 0.12 0.12 0.12 0.12 0.12 0.13 0.13 0.14 0.17 0.19 0.19 0.22 0.23 0.28 0.28 0.27 0.33 0.30 0.31 0.31 0.35 0.37 0.37 0.37 0.47 0.52 0.52 0.52 0.59 0.66 0.66 0.59 0.53 0.53 0.61 0.61 0.68 0.60 0.44 0.44 0.53 0.77 0.68 0.68 0.76 0.65 0.65 0.66 0.67 0.64 0.64 0.67
0.04 0.03 0.03 0.03 0.03 0.03 0.03 0.02 0.02 0.02 0.02 0.02 0.02 0.02 0.03 0.03 0.03 0.03 0.04 0.05 0.05 0.05 0.07 0.09 0.09 0.11 0.11 0.10 0.09 0.09 0.09 0.11 0.13 0.13 0.13 0.14 0.14 0.14 0.13 0.13 0.13 0.14 0.17 0.20 0.20 0.24 0.26 0.26 0.26 0.26 0.26 0.34 0.35 0.35 0.36 0.34 0.34 0.41 0.41 0.49 0.49 0.51 0.55 0.60 0.60 0.57 0.51 0.52 0.58 0.58 0.60 0.54 0.53 0.53 0.55 0.58 0.60 0.60 0.65 0.57 0.57 0.57 0.59 0.57 0.57 0.59
0.04 0.03 0.03 0.03 0.03 0.03 0.03 0.02 0.02 0.02 0.02 0.02 0.02 0.02 0.03 0.03 0.03 0.03 0.03 0.04 0.04 0.05 0.05 0.07 0.07 0.09 0.10 0.10 0.09 0.09 0.09 0.11 0.14 0.14 0.14 0.17 0.16 0.16 0.13 0.14 0.14 0.14 0.17 0.22 0.22 0.24 0.28 0.31 0.31 0.32 0.32 0.26 0.25 0.25 0.36 0.36 0.36 0.35 0.41 0.47 0.47 0.54 0.52 0.56 0.56 0.51 0.48 0.50 0.56 0.56 0.58 0.55 0.51 0.51 0.54 0.56 0.52 0.52 0.58 0.50 0.50 0.50 0.53 0.52 0.52 0.54